Location: Maignaut
(43.8886°N, 0.4051°E)
Time: 19:52:28
(UTC+00:00)

CSL-04 DEB - Pass Details

Date: 17 January 2021
Orbit: 544 x 628 km, 98.8° (Epoch: 28 February)

Event Time Altitude Azimuth Distance (km) Brightness Sun altitude
Rises 17:49:20 0° 14° (NNE) 2,883 7.7 -10.8°
Reaches altitude 10° 17:51:33 10° 15° (NNE) 1,961 6.8 -11.2°
Maximum altitude 17:55:48 87° 104° (ESE) 601 4.4 -11.9°
Drops below altitude 10° 17:59:56 10° 194° (SSW) 1,894 7.5 -12.6°
Sets 18:02:02 0° 195° (SSW) 2,775 8.4 -13.0°
